Ponca City, OK

10:31 AM CST on November 15, 2019 (GMT -0600)
Ponca City Municipal

Weather History for KPNC - July, 2019

Change the Weather History Date:

Friday, July 26, 2019

  Actual Average Record
Temperature  
Mean Temperature 79 °F -  
Max Temperature 90 °F 96 °F 107 °F (1952)
Min Temperature 69 °F 71 °F 55 °F (2004)
Cooling Degree Days 14    
Growing Degree Days 29 (Base 50)    
Moisture  
Dew Point 57 °F    
Average Humidity 48    
Maximum Humidity 64    
Minimum Humidity 33    
Precipitation  
Precipitation 0.00 in - - ()
Sea Level Pressure  
Sea Level Pressure 30.09 in    
Wind  
Wind Speed 10 mph (SSE)    
Max Wind Speed 15 mph    
Max Gust Speed 21 mph    
Visibility 10 miles    
Events      
Averages and records for this station are not official NWS values.
T = Trace of Precipitation, MM = Missing Value Source: NWS Daily Summary

Daily Weather History Graph

Daily Weather History Graph

Search for Another Location

Airport or City:

Astronomy

Jul. 26, 2019 Rise Set
Actual Time 6:29 AM CDT 8:40 PM CDT
Civil Twilight 6:00 AM CDT 9:09 PM CDT
Nautical Twilight 5:24 AM CDT 9:44 PM CDT
Astronomical Twilight 4:45 AM CDT 10:23 PM CDT
Moon 1:39 AM CDT (7/26) 3:28 PM CDT (7/26)
Length of Visible Light 15h 08m
Length of Day
14h 10m
Waning Crescent, 34% of the Moon is Illuminated
Jul 26
Waning Crescent
Jul 31
New
Aug 7
First Quarter
Aug 15
Full
Aug 23
Last Quarter

Hourly Weather History & Observations

Time (CDT) Temp. Heat Index Dew Point Humidity Pressure Visibility Wind Dir Wind Speed Gust Speed Precip Events Conditions
12:53 AM 75.0 °F - 55.9 °F 51% 30.07 in 10.0 mi SSE 15.0 mph - N/A   Clear
1:53 AM 73.0 °F - 57.0 °F 57% 30.07 in 10.0 mi SSE 11.5 mph - N/A   Clear
2:53 AM 72.0 °F - 57.9 °F 61% 30.07 in 10.0 mi SSE 9.2 mph - N/A   Clear
3:53 AM 72.0 °F - 59.0 °F 64% 30.07 in 10.0 mi SSE 10.4 mph - N/A   Clear
4:53 AM 71.1 °F - 57.0 °F 61% 30.09 in 10.0 mi South 4.6 mph - N/A   Clear
5:53 AM 70.0 °F - 55.9 °F 61% 30.10 in 10.0 mi South 4.6 mph - N/A   Clear
6:53 AM 69.1 °F - 55.9 °F 63% 30.12 in 10.0 mi South 4.6 mph - N/A   Clear
7:53 AM 71.1 °F - 55.9 °F 59% 30.12 in 10.0 mi South 5.8 mph - N/A   Clear
8:53 AM 75.0 °F - 57.0 °F 53% 30.14 in 10.0 mi South 9.2 mph - N/A   Clear
9:53 AM 79.0 °F - 57.9 °F 48% 30.13 in 10.0 mi SSW 6.9 mph - N/A   Clear
10:53 AM 82.0 °F 82.0 °F 57.9 °F 44% 30.13 in 10.0 mi South 10.4 mph - N/A   Clear
11:53 AM 84.9 °F 84.2 °F 57.9 °F 40% 30.12 in 10.0 mi SSW 11.5 mph 17.3 mph N/A   Clear
12:53 PM 86.0 °F 85.4 °F 59.0 °F 40% 30.12 in 10.0 mi South 10.4 mph 20.7 mph N/A   Clear
1:53 PM 88.0 °F 87.1 °F 59.0 °F 37% 30.10 in 10.0 mi SSW 10.4 mph - N/A   Clear
2:53 PM 89.1 °F 88.2 °F 59.0 °F 36% 30.08 in 10.0 mi SSE 10.4 mph 16.1 mph N/A   Clear
3:53 PM 89.1 °F 87.7 °F 57.0 °F 34% 30.07 in 10.0 mi SE 10.4 mph 20.7 mph N/A   Clear
4:53 PM 89.1 °F 87.7 °F 57.0 °F 34% 30.06 in 10.0 mi SSE 9.2 mph 18.4 mph N/A   Clear
5:53 PM 89.1 °F 87.7 °F 57.0 °F 34% 30.05 in 10.0 mi SSE 9.2 mph 17.3 mph N/A   Clear
6:53 PM 87.1 °F 85.3 °F 55.0 °F 33% 30.05 in 10.0 mi SSE 15.0 mph - N/A   Clear
7:53 PM 84.0 °F 83.0 °F 55.9 °F 38% 30.06 in 10.0 mi SSE 10.4 mph - N/A   Clear
8:53 PM 81.0 °F 81.0 °F 57.0 °F 44% 30.07 in 10.0 mi North - - N/A   Clear
9:53 PM 75.9 °F - 57.0 °F 52% 30.09 in 10.0 mi SE 8.1 mph - N/A   Clear
10:53 PM 75.9 °F - 57.0 °F 52% 30.11 in 10.0 mi SSE 10.4 mph - N/A   Clear
11:53 PM 75.0 °F - 57.9 °F 55% 30.12 in 10.0 mi SSE 9.2 mph - N/A   Clear